STARLINK-33590, 64316

Orbit data source: Space-Track

STARLINK-33590, 64316 is a payload satellite owned by SpaceX/Seattle (US) in LEO that was launched on Sun, 08 Jun 2025 UTC via an FALCON 9 launch vehicle from the Air Force Western Test Range (AFWTR). Payload-class satellites include a variety of spacecraft equipped with specific instruments for various scientific and technological missions. These include communications satellites like Starlink; space stations such as the ISS; scientific satellites like the Hubble; Earth observation satellites from companies like Planet Labs, Umbra, and HawkEye 360; GPS; miniature CubeSats for education and research; and military/defense satellites.

Loading next visibility...
Identifier
64316, 2025-123AB
Orbit
LEO
Country
Flag of USUS
Related business
Manufacturer
SpaceX/Seattle
Mission
Operational Commercial Communications
Bus & Motor
STARLINK V2MO, Unknown motor
Mass
575 kg wet, ~530 kg dry
Launch date (UTC)
2025-06-08 (10 months ago)
Launch vehicle
FALCON 9
Launch site
Air Force Western Test Range (AFWTR)
Object type
Payload
Rocket body
Debris
Shape & HBR
Box + 2 Pan, 17.7 m
Radar Cross Section
36.964 m², Large (>1 m²)

Expand to show TLE details & history
Last TLE update: 14 hours ago

TLE from 14 hours ago
0 STARLINK-33590
1 64316U 25123AB  26093.66667824 -.00029549  00000-0 -24791-2 0  9994
2 64316  70.0002 131.4348 0003990 274.9476 344.3133 14.98325855  5775
Epoch: 2026-04-03T16:00Z
TLE epoch observation values (Epoch: 2026-04-03T16:00:00.999Z)
Latitude
-67.52258°
Longitude
-59.53579°
Altitude
594.273 km
Speed
7.563 km/s
True Right ascension
00h 49m 51s
True Declination
-67° 23' 53"
Sunlit
Object was in daylight at epoch
Visualization orbit readout
Latitude
Unknown
Longitude
Unknown
Altitude
Unknown
Speed
Unknown
Apparent Right ascension
Unknown
Apparent Declination
Unknown
Sunlit
N/A
Visualization observer readout
Local Sidereal Time
11:24:54
Azimuth
Unknown
Elevation
Unknown
Doppler factor
Unknown
Orbital elements
Apogee altitude
572.789 km
Perigee altitude
567.245 km
Semi-major axis
6,948.154 km
Eccentricity
0.0004
Inclination
70.0002°
RAAN
131.4348°
Arg. of periapsis
274.9476°
True anomaly
344.30093°
Mean anomaly
344.3133°
Eccentric anomaly
344.30712°
Mean motion
3.74748 °/min
Orbital period
96.06 mins
BSTAR
-0.0024791
Loading maneuver chart data...
Computing Atmospheric mass density...
Loading historical data...
Loading historical data...
Loading historical data...
Loading historical data...
Loading historical data...
Loading historical data...
Loading historical data...

Documentation

Showing up to 5 results
|